Miscellaneous Local Product
Issued by NWS Hastings, NE

Home | Current Version | Previous Version | Text Only | Print | Product List | Glossary Off
Versions: 1 2 3 4 5 6 7 8 9 10 11 12 13 14 15 16 17 18 19 20 21 22 23 24 25 26 27 28 29 30 31 32 33 34 35 36 37 38 39 40 41 42 43 44 45 46 47 48 49 50

000
AXUS43 KGID 221502
MISGRI

GID CWA HOURLY WEATHER ROUNDUP
NATIONAL WEATHER SERVICE HASTINGS NE
1000 AM CDT FRI AUG 22 2014

NOTE: "FAIR" INDICATES FEW OR NO CLOUDS BELOW 12,000 FEET WITH NO
SIGNIFICANT WEATHER AND/OR OBSTRUCTIONS TO VISIBILITY.

...SOUTH CENTRAL NEBRASKA...

CITY           SKY/WX    TMP DP  RH WIND       PRES   REMARKS
GRAND ISLAND   SUNNY     78  70  76 E7        29.95S
HASTINGS       SUNNY     79  67  66 E5        29.95R
KEARNEY        PTSUNNY   73  72  94 N3        29.98R
ORD            MOSUNNY   78  72  81 NW5       29.96R
YORK           LGT RAIN  79 N/A N/A CALM      29.94R
AURORA         SUNNY     78  75  90 CALM      29.95R
LEXINGTON      MOSUNNY   77  73  86 N9        30.00S
HOLDREGE       MOSUNNY   74  70  87 N7        29.98R
HEBRON         MOSUNNY   79  70  73 SE5       29.92F

...NEBRASKA PANHANDLE...

CITY           SKY/WX    TMP DP  RH WIND       PRES   REMARKS
CHADRON        CLOUDY    65  58  78 NW6       30.10R
ALLIANCE       CLOUDY    68  54  60 N12       30.11R
SCOTTSBLUFF    CLOUDY    65  56  72 NW6       30.11S
SIDNEY         LGT RAIN  64  61  90 CALM      30.13S

...WESTERN AND NORTH CENTRAL NEBRASKA...

CITY           SKY/WX    TMP DP  RH WIND       PRES   REMARKS
VALENTINE      CLOUDY    71  63  75 CALM      30.02R
AINSWORTH      CLOUDY    71  67  88 CALM      30.02S
ONEILL         SUNNY     77  71  82 CALM      30.00R
BROKEN BOW     PTSUNNY   78  71  79 NW5       30.01R
IMPERIAL       PTSUNNY   71  59  65 N13G21    30.03R
NORTH PLATTE   LGT RAIN  71  64  78 N6        30.02F
MCCOOK         MOSUNNY   81  65  58 N15G24    30.00S

...EASTERN NEBRASKA...

CITY           SKY/WX    TMP DP  RH WIND       PRES   REMARKS
NORFOLK        SUNNY     82  71  69 NE5       29.94S
SO SIOUX CITY  SUNNY     82  72  71 N3        29.93R
TEKAMAH        SUNNY     82  74  76 CALM      29.92R
COLUMBUS       SUNNY     81  73  78 NE3       29.94S
ALBION         MOSUNNY   79  70  75 E7        29.96R
OMAHA EPPLEY   PTSUNNY   80  72  76 CALM      29.92R
OFFUTT AFB     PTSUNNY   81  81 100 S3        29.92R HX  91
MILLARD        SUNNY     82  75  79 SE5       29.92R
LINCOLN        SUNNY     83  74  74 E6        29.93R
NEBRASKA CITY  MOSUNNY   78  75  92 S10       29.94R
BEATRICE       MOSUNNY   80  73  81 SE12      29.93S
FALLS CITY     TSTM      79  70  74 SW8       29.92F

...NORTHERN KANSAS...

CITY           SKY/WX    TMP DP  RH WIND       PRES   REMARKS
GOODLAND       SUNNY     77  57  50 N15G24    30.04R
HILL CITY      MOSUNNY   80  68  66 NW10      29.98R
NORTON         SUNNY     79  64  61 N5        29.98S
PHILLIPSBURG   SUNNY     81  66  61 N9        29.93R
SMITH CENTER   SUNNY     81  70  69 NE12      29.92S
HAYS           PTSUNNY   79  66  65 N6        29.93R
RUSSELL        PTSUNNY   82  67  60 CALM      29.92R
CONCORDIA      CLOUDY    76  73  91 E6        29.90R
SALINA         MOSUNNY   88  69  53 S12       29.91R HX  92
TOPEKA         PTSUNNY   86  72  62 VRB3      29.95S HX  92



USA.gov is the U.S. government's official web portal to all federal, state and local government web resources and services.